Year,Month,Day,Hour,Minute,Value (Times are PST for temperature in C)
2006,09,24,00,00,11.60
2006,09,24,00,01,11.60
2006,09,24,00,02,11.60
2006,09,24,00,03,11.50
2006,09,24,00,04,11.40
2006,09,24,00,05,11.40
2006,09,24,00,06,11.40
2006,09,24,00,07,11.40
2006,09,24,00,08,11.30
2006,09,24,00,09,11.30
2006,09,24,00,10,11.30
2006,09,24,00,11,11.30
2006,09,24,00,12,11.20
2006,09,24,00,13,11.20
2006,09,24,00,14,11.20
2006,09,24,00,15,11.30
2006,09,24,00,16,11.30
2006,09,24,00,17,11.30
2006,09,24,00,18,11.30
2006,09,24,00,19,11.40
2006,09,24,00,20,11.40
2006,09,24,00,21,11.40
2006,09,24,00,22,11.40
2006,09,24,00,23,11.40
2006,09,24,00,24,11.40
2006,09,24,00,25,11.40
2006,09,24,00,26,11.40
2006,09,24,00,27,11.40
2006,09,24,00,28,11.40
2006,09,24,00,29,11.40
2006,09,24,00,30,11.40
2006,09,24,00,31,11.30
2006,09,24,00,32,11.30
2006,09,24,00,33,11.30
2006,09,24,00,34,11.30
2006,09,24,00,35,11.30
2006,09,24,00,36,11.30
2006,09,24,00,37,11.30
2006,09,24,00,38,11.30
2006,09,24,00,39,11.30
2006,09,24,00,40,11.30
2006,09,24,00,41,11.30
2006,09,24,00,42,11.20
2006,09,24,00,43,11.20
2006,09,24,00,44,11.20
2006,09,24,00,45,11.10
2006,09,24,00,46,11.10
2006,09,24,00,47,11.10
2006,09,24,00,48,11.10
2006,09,24,00,49,11.10
2006,09,24,00,50,11.00
2006,09,24,00,51,10.90
2006,09,24,00,52,10.90
2006,09,24,00,53,10.90
2006,09,24,00,54,10.90
2006,09,24,00,55,10.90
2006,09,24,00,56,10.80
2006,09,24,00,57,10.80
2006,09,24,00,58,10.80
2006,09,24,00,59,10.80
2006,09,24,01,00,10.80
2006,09,24,01,01,10.80
2006,09,24,01,02,10.80
2006,09,24,01,03,10.90
2006,09,24,01,04,10.90
2006,09,24,01,05,10.90
2006,09,24,01,06,10.90
2006,09,24,01,07,10.90
2006,09,24,01,08,10.90
2006,09,24,01,09,10.90
2006,09,24,01,10,10.90
2006,09,24,01,11,10.90
2006,09,24,01,12,10.80
2006,09,24,01,13,10.80
2006,09,24,01,14,10.80
2006,09,24,01,15,10.80
2006,09,24,01,16,10.80
2006,09,24,01,17,10.80
2006,09,24,01,18,10.90
2006,09,24,01,19,10.90
2006,09,24,01,20,10.90
2006,09,24,01,21,10.90
2006,09,24,01,22,10.90
2006,09,24,01,23,10.90
2006,09,24,01,24,10.90
2006,09,24,01,25,10.90
2006,09,24,01,26,10.80
2006,09,24,01,27,10.80
2006,09,24,01,28,10.80
2006,09,24,01,29,10.80
2006,09,24,01,30,10.80
2006,09,24,01,31,10.80
2006,09,24,01,32,10.80
2006,09,24,01,33,10.80
2006,09,24,01,34,10.70
2006,09,24,01,35,10.70
2006,09,24,01,36,10.70
2006,09,24,01,37,10.70
2006,09,24,01,38,10.70
2006,09,24,01,39,10.70
2006,09,24,01,40,10.70
2006,09,24,01,41,10.70
2006,09,24,01,42,10.60
2006,09,24,01,43,10.60
2006,09,24,01,44,10.60
2006,09,24,01,45,10.50
2006,09,24,01,46,10.40
2006,09,24,01,47,10.40
2006,09,24,01,48,10.40
2006,09,24,01,49,10.40
2006,09,24,01,50,10.40
2006,09,24,01,51,10.40
2006,09,24,01,52,10.40
2006,09,24,01,53,10.40
2006,09,24,01,54,10.40
2006,09,24,01,55,10.40
2006,09,24,01,56,10.40
2006,09,24,01,57,10.40
2006,09,24,01,58,10.40
2006,09,24,01,59,10.40
2006,09,24,02,00,10.40
2006,09,24,02,01,10.40
2006,09,24,02,02,10.40
2006,09,24,02,03,10.40
2006,09,24,02,04,10.40
2006,09,24,02,05,10.40
2006,09,24,02,06,10.40
2006,09,24,02,07,10.40
2006,09,24,02,08,10.40
2006,09,24,02,09,10.40
2006,09,24,02,10,10.40
2006,09,24,02,11,10.40
2006,09,24,02,12,10.40
2006,09,24,02,13,10.40
2006,09,24,02,14,10.40
2006,09,24,02,15,10.40
2006,09,24,02,16,10.40
2006,09,24,02,17,10.40
2006,09,24,02,18,10.40
2006,09,24,02,19,10.40
2006,09,24,02,20,10.40
2006,09,24,02,21,10.40
2006,09,24,02,22,10.40
2006,09,24,02,23,10.40
2006,09,24,02,24,10.40
2006,09,24,02,25,10.40
2006,09,24,02,26,10.40
2006,09,24,02,27,10.40
2006,09,24,02,28,10.40
2006,09,24,02,29,10.40
2006,09,24,02,30,10.30
2006,09,24,02,31,10.30
2006,09,24,02,32,10.30
2006,09,24,02,33,10.30
2006,09,24,02,34,10.30
2006,09,24,02,35,10.30
2006,09,24,02,36,10.30
2006,09,24,02,37,10.30
2006,09,24,02,38,10.30
2006,09,24,02,39,10.30
2006,09,24,02,40,10.30
2006,09,24,02,41,10.30
2006,09,24,02,42,10.30
2006,09,24,02,43,10.30
2006,09,24,02,44,10.30
2006,09,24,02,45,10.20
2006,09,24,02,46,10.20
2006,09,24,02,47,10.20
2006,09,24,02,48,10.20
2006,09,24,02,49,10.20
2006,09,24,02,50,10.20
2006,09,24,02,51,10.10
2006,09,24,02,52,10.10
2006,09,24,02,53,10.10
2006,09,24,02,54,10.10
2006,09,24,02,55,10.10
2006,09,24,02,56,10.10
2006,09,24,02,57,10.10
2006,09,24,02,58,10.10
2006,09,24,02,59,10.10
2006,09,24,03,00,10.10
2006,09,24,03,01,10.10
2006,09,24,03,02,10.00
2006,09,24,03,03,9.90
2006,09,24,03,04,9.90
2006,09,24,03,05,9.90
2006,09,24,03,06,9.90
2006,09,24,03,07,9.90
2006,09,24,03,08,9.90
2006,09,24,03,09,9.90
2006,09,24,03,10,9.90
2006,09,24,03,11,9.90
2006,09,24,03,12,9.90
2006,09,24,03,13,9.90
2006,09,24,03,14,10.10
2006,09,24,03,15,10.10
2006,09,24,03,16,10.10
2006,09,24,03,17,10.10
2006,09,24,03,18,10.10
2006,09,24,03,19,10.10
2006,09,24,03,20,10.10
2006,09,24,03,21,10.10
2006,09,24,03,22,10.10
2006,09,24,03,23,10.10
2006,09,24,03,24,10.10
2006,09,24,03,25,10.00
2006,09,24,03,26,9.90
2006,09,24,03,27,9.90
2006,09,24,03,28,9.90
2006,09,24,03,29,9.90
2006,09,24,03,30,9.90
2006,09,24,03,31,9.90
2006,09,24,03,32,9.90
2006,09,24,03,33,9.90
2006,09,24,03,34,10.00
2006,09,24,03,35,9.90
2006,09,24,03,36,9.90
2006,09,24,03,37,9.90
2006,09,24,03,38,9.90
2006,09,24,03,39,9.90
2006,09,24,03,40,9.90
2006,09,24,03,41,9.80
2006,09,24,03,42,9.80
2006,09,24,03,43,9.70
2006,09,24,03,44,9.70
2006,09,24,03,45,9.70
2006,09,24,03,46,9.70
2006,09,24,03,47,9.70
2006,09,24,03,48,9.70
2006,09,24,03,49,9.70
2006,09,24,03,50,9.70
2006,09,24,03,51,9.80
2006,09,24,03,52,9.80
2006,09,24,03,53,9.80
2006,09,24,03,54,9.80
2006,09,24,03,55,9.90
2006,09,24,03,56,9.90
2006,09,24,03,57,9.90
2006,09,24,03,58,9.90
2006,09,24,03,59,9.90
2006,09,24,04,00,9.90
2006,09,24,04,01,9.90
2006,09,24,04,02,9.90
2006,09,24,04,03,9.90
2006,09,24,04,04,9.90
2006,09,24,04,05,9.90
2006,09,24,04,06,9.90
2006,09,24,04,07,9.90
2006,09,24,04,08,9.80
2006,09,24,04,09,9.80
2006,09,24,04,10,9.70
2006,09,24,04,11,9.70
2006,09,24,04,12,9.70
2006,09,24,04,13,9.80
2006,09,24,04,14,9.80
2006,09,24,04,15,9.80
2006,09,24,04,16,9.90
2006,09,24,04,17,9.90
2006,09,24,04,18,9.90
2006,09,24,04,19,9.90
2006,09,24,04,20,9.80
2006,09,24,04,21,9.80
2006,09,24,04,22,9.80
2006,09,24,04,23,9.90
2006,09,24,04,24,9.90
2006,09,24,04,25,9.90
2006,09,24,04,26,10.00
2006,09,24,04,27,10.10
2006,09,24,04,28,10.10
2006,09,24,04,29,10.10
2006,09,24,04,30,10.20
2006,09,24,04,31,10.20
2006,09,24,04,32,10.10
2006,09,24,04,33,10.10
2006,09,24,04,34,10.10
2006,09,24,04,35,10.10
2006,09,24,04,36,10.10
2006,09,24,04,37,10.00
2006,09,24,04,38,9.90
2006,09,24,04,39,9.90
2006,09,24,04,40,9.90
2006,09,24,04,41,9.90
2006,09,24,04,42,9.80
2006,09,24,04,43,9.80
2006,09,24,04,44,9.90
2006,09,24,04,45,9.90
2006,09,24,04,46,9.90
2006,09,24,04,47,9.80
2006,09,24,04,48,9.80
2006,09,24,04,49,9.80
2006,09,24,04,50,9.80
2006,09,24,04,51,9.80
2006,09,24,04,52,9.70
2006,09,24,04,53,9.70
2006,09,24,04,54,9.70
2006,09,24,04,55,9.70
2006,09,24,04,56,9.70
2006,09,24,04,57,9.70
2006,09,24,04,58,9.70
2006,09,24,04,59,9.70
2006,09,24,05,00,9.70
2006,09,24,05,01,9.70
2006,09,24,05,02,9.70
2006,09,24,05,03,9.70
2006,09,24,05,04,9.70
2006,09,24,05,05,9.60
2006,09,24,05,06,9.60
2006,09,24,05,07,9.60
2006,09,24,05,08,9.60
2006,09,24,05,09,9.60
2006,09,24,05,10,9.60
2006,09,24,05,11,9.60
2006,09,24,05,12,9.60
2006,09,24,05,13,9.60
2006,09,24,05,14,9.60
2006,09,24,05,15,9.60
2006,09,24,05,16,9.60
2006,09,24,05,17,9.50
2006,09,24,05,18,9.40
2006,09,24,05,19,9.10
2006,09,24,05,20,8.90
2006,09,24,05,21,8.90
2006,09,24,05,22,8.90
2006,09,24,05,23,8.90
2006,09,24,05,24,8.90
2006,09,24,05,25,9.00
2006,09,24,05,26,9.00
2006,09,24,05,27,9.10
2006,09,24,05,28,9.20
2006,09,24,05,29,9.20
2006,09,24,05,30,9.20
2006,09,24,05,31,9.20
2006,09,24,05,32,9.10
2006,09,24,05,33,9.10
2006,09,24,05,34,9.10
2006,09,24,05,35,9.10
2006,09,24,05,36,9.10
2006,09,24,05,37,9.20
2006,09,24,05,38,9.20
2006,09,24,05,39,9.20
2006,09,24,05,40,9.20
2006,09,24,05,41,9.20
2006,09,24,05,42,9.20
2006,09,24,05,43,9.30
2006,09,24,05,44,9.30
2006,09,24,05,45,9.30
2006,09,24,05,46,9.40
2006,09,24,05,47,9.40
2006,09,24,05,48,9.50
2006,09,24,05,49,9.50
2006,09,24,05,50,9.50
2006,09,24,05,51,9.50
2006,09,24,05,52,9.50
2006,09,24,05,53,9.60
2006,09,24,05,54,9.60
2006,09,24,05,55,9.60
2006,09,24,05,56,9.60
2006,09,24,05,57,9.50
2006,09,24,05,58,9.50
2006,09,24,05,59,9.50
2006,09,24,06,00,9.40
2006,09,24,06,01,9.40
2006,09,24,06,02,9.30
2006,09,24,06,03,9.30
2006,09,24,06,04,9.30
2006,09,24,06,05,9.30
2006,09,24,06,06,9.40
2006,09,24,06,07,9.40
2006,09,24,06,08,9.40
2006,09,24,06,09,9.40
2006,09,24,06,10,9.40
2006,09,24,06,11,9.40
2006,09,24,06,12,9.40
2006,09,24,06,13,9.40
2006,09,24,06,14,9.40
2006,09,24,06,15,9.40
2006,09,24,06,16,9.40
2006,09,24,06,17,9.40
2006,09,24,06,18,9.30
2006,09,24,06,19,9.30
2006,09,24,06,20,9.30
2006,09,24,06,21,9.30
2006,09,24,06,22,9.30
2006,09,24,06,23,9.30
2006,09,24,06,24,9.30
2006,09,24,06,25,9.30
2006,09,24,06,26,9.30
2006,09,24,06,27,9.30
2006,09,24,06,28,9.20
2006,09,24,06,29,9.20
2006,09,24,06,30,9.20
2006,09,24,06,31,9.20
2006,09,24,06,32,9.20
2006,09,24,06,33,9.20
2006,09,24,06,34,9.20
2006,09,24,06,35,9.20
2006,09,24,06,36,9.20
2006,09,24,06,37,9.20
2006,09,24,06,38,9.20
2006,09,24,06,39,9.20
2006,09,24,06,40,9.20
2006,09,24,06,41,9.30
2006,09,24,06,42,9.30
2006,09,24,06,43,9.30
2006,09,24,06,44,9.30
2006,09,24,06,45,9.30
2006,09,24,06,46,9.30
2006,09,24,06,47,9.30
2006,09,24,06,48,9.30
2006,09,24,06,49,9.30
2006,09,24,06,50,9.20
2006,09,24,06,51,9.20
2006,09,24,06,52,9.20
2006,09,24,06,53,9.20
2006,09,24,06,54,9.20
2006,09,24,06,55,9.20
2006,09,24,06,56,9.20
2006,09,24,06,57,9.20
2006,09,24,06,58,9.20
2006,09,24,06,59,9.20
2006,09,24,07,00,9.20
2006,09,24,07,01,9.20
2006,09,24,07,02,9.20
2006,09,24,07,03,9.20
2006,09,24,07,04,9.20
2006,09,24,07,05,9.20
2006,09,24,07,06,9.20
2006,09,24,07,07,9.10
2006,09,24,07,08,9.10
2006,09,24,07,09,9.10
2006,09,24,07,10,9.10
2006,09,24,07,11,9.10
2006,09,24,07,12,9.10
2006,09,24,07,13,9.10
2006,09,24,07,14,9.10
2006,09,24,07,15,9.10
2006,09,24,07,16,9.00
2006,09,24,07,17,9.00
2006,09,24,07,18,9.00
2006,09,24,07,19,9.00
2006,09,24,07,20,9.10
2006,09,24,07,21,9.10
2006,09,24,07,22,9.10
2006,09,24,07,23,9.00
2006,09,24,07,24,9.10
2006,09,24,07,25,9.10
2006,09,24,07,26,9.10
2006,09,24,07,27,9.10
2006,09,24,07,28,9.20
2006,09,24,07,29,9.20
2006,09,24,07,30,9.30
2006,09,24,07,31,9.40
2006,09,24,07,32,9.60
2006,09,24,07,33,9.70
2006,09,24,07,34,9.70
2006,09,24,07,35,9.80
2006,09,24,07,36,9.80
2006,09,24,07,37,9.90
2006,09,24,07,38,9.90
2006,09,24,07,39,9.90
2006,09,24,07,40,9.90
2006,09,24,07,41,9.90
2006,09,24,07,42,9.90
2006,09,24,07,43,10.00
2006,09,24,07,44,10.10
2006,09,24,07,45,10.20
2006,09,24,07,46,10.30
2006,09,24,07,47,10.40
2006,09,24,07,48,10.40
2006,09,24,07,49,10.40
2006,09,24,07,50,10.50
2006,09,24,07,51,10.60
2006,09,24,07,52,10.60
2006,09,24,07,53,10.60
2006,09,24,07,54,10.70
2006,09,24,07,55,10.80
2006,09,24,07,56,10.80
2006,09,24,07,57,10.90
2006,09,24,07,58,10.90
2006,09,24,07,59,10.90
2006,09,24,08,00,10.90
2006,09,24,08,01,11.10
2006,09,24,08,02,11.10
2006,09,24,08,03,11.10
2006,09,24,08,04,11.20
2006,09,24,08,05,11.20
2006,09,24,08,06,11.30
2006,09,24,08,07,11.30
2006,09,24,08,08,11.40
2006,09,24,08,09,11.40
2006,09,24,08,10,11.40
2006,09,24,08,11,11.40
2006,09,24,08,12,11.50
2006,09,24,08,13,11.80
2006,09,24,08,14,11.80
2006,09,24,08,15,11.90
2006,09,24,08,16,12.00
2006,09,24,08,17,12.10
2006,09,24,08,18,12.10
2006,09,24,08,19,12.20
2006,09,24,08,20,12.30
2006,09,24,08,21,12.30
2006,09,24,08,22,12.40
2006,09,24,08,23,12.50
2006,09,24,08,24,12.50
2006,09,24,08,25,12.50
2006,09,24,08,26,12.70
2006,09,24,08,27,12.80
2006,09,24,08,28,12.80
2006,09,24,08,29,12.80
2006,09,24,08,30,12.90
2006,09,24,08,31,13.00
2006,09,24,08,32,13.10
2006,09,24,08,33,13.10
2006,09,24,08,34,13.20
2006,09,24,08,35,13.20
2006,09,24,08,36,13.30
2006,09,24,08,37,13.30
2006,09,24,08,38,13.40
2006,09,24,08,39,13.50
2006,09,24,08,40,13.50
2006,09,24,08,41,13.60
2006,09,24,08,42,13.70
2006,09,24,08,43,13.70
2006,09,24,08,44,13.80
2006,09,24,08,45,13.90
2006,09,24,08,46,14.00
2006,09,24,08,47,14.00
2006,09,24,08,48,14.10
2006,09,24,08,49,14.20
2006,09,24,08,50,14.20
2006,09,24,08,51,14.30
2006,09,24,08,52,14.40
2006,09,24,08,53,14.40
2006,09,24,08,54,14.50
2006,09,24,08,55,14.60
2006,09,24,08,56,14.60
2006,09,24,08,57,14.70
2006,09,24,08,58,14.80
2006,09,24,08,59,14.90
2006,09,24,09,00,15.00
2006,09,24,09,01,15.00
2006,09,24,09,02,15.10
2006,09,24,09,03,15.20
2006,09,24,09,04,15.20
2006,09,24,09,05,15.20
2006,09,24,09,06,15.30
2006,09,24,09,07,15.50
2006,09,24,09,08,15.50
2006,09,24,09,09,15.60
2006,09,24,09,10,15.60
2006,09,24,09,11,15.70
2006,09,24,09,12,15.80
2006,09,24,09,13,15.80
2006,09,24,09,14,15.80
2006,09,24,09,15,15.80
2006,09,24,09,16,15.90
2006,09,24,09,17,15.90
2006,09,24,09,18,15.90
2006,09,24,09,19,16.00
2006,09,24,09,20,16.10
2006,09,24,09,21,16.10
2006,09,24,09,22,16.10
2006,09,24,09,23,16.10
2006,09,24,09,24,16.10
2006,09,24,09,25,16.10
2006,09,24,09,26,16.10
2006,09,24,09,27,16.10
2006,09,24,09,28,16.10
2006,09,24,09,29,16.10
2006,09,24,09,30,16.20
2006,09,24,09,31,16.20
2006,09,24,09,32,16.20
2006,09,24,09,33,16.20
2006,09,24,09,34,16.30
2006,09,24,09,35,16.30
2006,09,24,09,36,16.40
2006,09,24,09,37,16.40
2006,09,24,09,38,16.40
2006,09,24,09,39,16.40
2006,09,24,09,40,16.40
2006,09,24,09,41,16.40
2006,09,24,09,42,16.40
2006,09,24,09,43,16.40
2006,09,24,09,44,16.50
2006,09,24,09,45,16.60
2006,09,24,09,46,16.60
2006,09,24,09,47,16.70
2006,09,24,09,48,16.70
2006,09,24,09,49,16.70
2006,09,24,09,50,16.70
2006,09,24,09,51,16.80
2006,09,24,09,52,16.80
2006,09,24,09,53,16.90
2006,09,24,09,54,16.90
2006,09,24,09,55,16.90
2006,09,24,09,56,16.90
2006,09,24,09,57,17.00
2006,09,24,09,58,17.00
2006,09,24,09,59,17.00
2006,09,24,10,00,17.00
2006,09,24,10,01,17.10
2006,09,24,10,02,17.10
2006,09,24,10,03,17.10
2006,09,24,10,04,17.20
2006,09,24,10,05,17.20
2006,09,24,10,06,17.20
2006,09,24,10,07,17.10
2006,09,24,10,08,17.10
2006,09,24,10,09,17.10
2006,09,24,10,10,17.20
2006,09,24,10,11,17.20
2006,09,24,10,12,17.30
2006,09,24,10,13,17.20
2006,09,24,10,14,17.20
2006,09,24,10,15,17.20
2006,09,24,10,16,17.20
2006,09,24,10,17,17.20
2006,09,24,10,18,17.20
2006,09,24,10,19,17.20
2006,09,24,10,20,17.20
2006,09,24,10,21,17.30
2006,09,24,10,22,17.30
2006,09,24,10,23,17.30
2006,09,24,10,24,17.40
2006,09,24,10,25,17.40
2006,09,24,10,26,17.40
2006,09,24,10,27,17.50
2006,09,24,10,28,17.50
2006,09,24,10,29,17.50
2006,09,24,10,30,17.50
2006,09,24,10,31,17.60
2006,09,24,10,32,17.60
2006,09,24,10,33,17.70
2006,09,24,10,34,17.70
2006,09,24,10,35,17.70
2006,09,24,10,36,17.70
2006,09,24,10,37,17.80
2006,09,24,10,38,17.90
2006,09,24,10,39,17.90
2006,09,24,10,40,17.90
2006,09,24,10,41,17.90
2006,09,24,10,42,17.90
2006,09,24,10,43,17.90
2006,09,24,10,44,17.90
2006,09,24,10,45,17.90
2006,09,24,10,46,17.90
2006,09,24,10,47,17.90
2006,09,24,10,48,17.90
2006,09,24,10,49,17.90
2006,09,24,10,50,17.90
2006,09,24,10,51,17.90
2006,09,24,10,52,17.90
2006,09,24,10,53,17.90
2006,09,24,10,54,18.00
2006,09,24,10,55,18.10
2006,09,24,10,56,18.10
2006,09,24,10,57,18.20
2006,09,24,10,58,18.20
2006,09,24,10,59,18.20
2006,09,24,11,00,18.20
2006,09,24,11,01,18.20
2006,09,24,11,02,18.10
2006,09,24,11,03,18.10
2006,09,24,11,04,18.10
2006,09,24,11,05,18.20
2006,09,24,11,06,18.30
2006,09,24,11,07,18.40
2006,09,24,11,08,18.50
2006,09,24,11,09,18.60
2006,09,24,11,10,18.60
2006,09,24,11,11,18.60
2006,09,24,11,12,18.60
2006,09,24,11,13,18.60
2006,09,24,11,14,18.50
2006,09,24,11,15,18.60
2006,09,24,11,16,18.60
2006,09,24,11,17,18.70
2006,09,24,11,18,18.80
2006,09,24,11,19,18.80
2006,09,24,11,20,18.80
2006,09,24,11,21,18.80
2006,09,24,11,22,18.70
2006,09,24,11,23,18.70
2006,09,24,11,24,18.70
2006,09,24,11,25,18.70
2006,09,24,11,26,18.60
2006,09,24,11,27,18.60
2006,09,24,11,28,18.60
2006,09,24,11,29,18.60
2006,09,24,11,30,18.60
2006,09,24,11,31,18.60
2006,09,24,11,32,18.60
2006,09,24,11,33,18.60
2006,09,24,11,34,18.60
2006,09,24,11,35,18.60
2006,09,24,11,36,18.60
2006,09,24,11,37,18.60
2006,09,24,11,38,18.60
2006,09,24,11,39,18.70
2006,09,24,11,40,18.70
2006,09,24,11,41,18.70
2006,09,24,11,42,18.70
2006,09,24,11,43,18.70
2006,09,24,11,44,18.80
2006,09,24,11,45,18.80
2006,09,24,11,46,18.90
2006,09,24,11,47,18.90
2006,09,24,11,48,18.90
2006,09,24,11,49,19.00
2006,09,24,11,50,19.10
2006,09,24,11,51,19.10
2006,09,24,11,52,19.10
2006,09,24,11,53,19.10
2006,09,24,11,54,19.10
2006,09,24,11,55,19.10
2006,09,24,11,56,19.10
2006,09,24,11,57,19.10
2006,09,24,11,58,19.00
2006,09,24,11,59,19.10
2006,09,24,12,00,19.10
2006,09,24,12,01,19.00
2006,09,24,12,02,18.90
2006,09,24,12,03,18.90
2006,09,24,12,04,18.90
2006,09,24,12,05,18.90
2006,09,24,12,06,18.80
2006,09,24,12,07,18.70
2006,09,24,12,08,18.70
2006,09,24,12,09,18.70
2006,09,24,12,10,18.70
2006,09,24,12,11,18.80
2006,09,24,12,12,18.90
2006,09,24,12,13,18.90
2006,09,24,12,14,18.90
2006,09,24,12,15,18.90
2006,09,24,12,16,18.80
2006,09,24,12,17,18.70
2006,09,24,12,18,18.70
2006,09,24,12,19,18.70
2006,09,24,12,20,18.70
2006,09,24,12,21,18.90
2006,09,24,12,22,18.90
2006,09,24,12,23,19.00
2006,09,24,12,24,19.10
2006,09,24,12,25,19.10
2006,09,24,12,26,19.20
2006,09,24,12,27,19.30
2006,09,24,12,28,19.40
2006,09,24,12,29,19.40
2006,09,24,12,30,19.50
2006,09,24,12,31,19.50
2006,09,24,12,32,19.60
2006,09,24,12,33,19.60
2006,09,24,12,34,19.70
2006,09,24,12,35,19.80
2006,09,24,12,36,19.90
2006,09,24,12,37,20.00
2006,09,24,12,38,20.10
2006,09,24,12,39,20.10
2006,09,24,12,40,20.10
2006,09,24,12,41,20.10
2006,09,24,12,42,20.00
2006,09,24,12,43,20.10
2006,09,24,12,44,20.10
2006,09,24,12,45,20.10
2006,09,24,12,46,20.10
2006,09,24,12,47,20.10
2006,09,24,12,48,20.10
2006,09,24,12,49,20.10
2006,09,24,12,50,20.20
2006,09,24,12,51,20.20
2006,09,24,12,52,20.30
2006,09,24,12,53,20.40
2006,09,24,12,54,20.50
2006,09,24,12,55,20.50
2006,09,24,12,56,20.60
2006,09,24,12,57,20.60
2006,09,24,12,58,20.60
2006,09,24,12,59,20.70
2006,09,24,13,00,20.70
2006,09,24,13,01,20.70
2006,09,24,13,02,20.70
2006,09,24,13,03,20.70
2006,09,24,13,04,20.70
2006,09,24,13,05,20.70
2006,09,24,13,06,20.70
2006,09,24,13,07,20.70
2006,09,24,13,08,20.80
2006,09,24,13,09,20.70
2006,09,24,13,10,20.80
2006,09,24,13,11,20.80
2006,09,24,13,12,20.80
2006,09,24,13,13,20.90
2006,09,24,13,14,20.90
2006,09,24,13,15,20.90
2006,09,24,13,16,20.90
2006,09,24,13,17,20.90
2006,09,24,13,18,21.00
2006,09,24,13,19,21.10
2006,09,24,13,20,21.10
2006,09,24,13,21,21.20
2006,09,24,13,22,21.30
2006,09,24,13,23,21.30
2006,09,24,13,24,21.20
2006,09,24,13,25,21.20
2006,09,24,13,26,21.20
2006,09,24,13,27,21.20
2006,09,24,13,28,21.10
2006,09,24,13,29,21.00
2006,09,24,13,30,21.00
2006,09,24,13,31,20.90
2006,09,24,13,32,20.90
2006,09,24,13,33,20.90
2006,09,24,13,34,20.90
2006,09,24,13,35,20.90
2006,09,24,13,36,21.00
2006,09,24,13,37,21.00
2006,09,24,13,38,21.00
2006,09,24,13,39,21.00
2006,09,24,13,40,21.00
2006,09,24,13,41,21.00
2006,09,24,13,42,21.10
2006,09,24,13,43,21.20
2006,09,24,13,44,21.20
2006,09,24,13,45,21.20
2006,09,24,13,46,21.20
2006,09,24,13,47,21.20
2006,09,24,13,48,21.20
2006,09,24,13,49,21.30
2006,09,24,13,50,21.30
2006,09,24,13,51,21.30
2006,09,24,13,52,21.30
2006,09,24,13,53,21.20
2006,09,24,13,54,21.20
2006,09,24,13,55,21.20
2006,09,24,13,56,21.10
2006,09,24,13,57,21.10
2006,09,24,13,58,21.10
2006,09,24,13,59,21.10
2006,09,24,14,00,21.20
2006,09,24,14,01,21.20
2006,09,24,14,02,21.20
2006,09,24,14,03,21.20
2006,09,24,14,04,21.20
2006,09,24,14,05,21.20
2006,09,24,14,06,21.30
2006,09,24,14,07,21.30
2006,09,24,14,08,21.40
2006,09,24,14,09,21.50
2006,09,24,14,10,21.60
2006,09,24,14,11,21.70
2006,09,24,14,12,21.70
2006,09,24,14,13,21.80
2006,09,24,14,14,21.80
2006,09,24,14,15,21.70
2006,09,24,14,16,21.70
2006,09,24,14,17,21.60
2006,09,24,14,18,21.60
2006,09,24,14,19,21.60
2006,09,24,14,20,21.60
2006,09,24,14,21,21.50
2006,09,24,14,22,21.40
2006,09,24,14,23,21.40
2006,09,24,14,24,21.50
2006,09,24,14,25,21.60
2006,09,24,14,26,21.60
2006,09,24,14,27,21.50
2006,09,24,14,28,21.50
2006,09,24,14,29,21.60
2006,09,24,14,30,21.60
2006,09,24,14,31,21.60
2006,09,24,14,32,21.60
2006,09,24,14,33,21.60
2006,09,24,14,34,21.60
2006,09,24,14,35,21.60
2006,09,24,14,36,21.70
2006,09,24,14,37,21.60
2006,09,24,14,38,21.60
2006,09,24,14,39,21.60
2006,09,24,14,40,21.60
2006,09,24,14,41,21.60
2006,09,24,14,42,21.60
2006,09,24,14,43,21.50
2006,09,24,14,44,21.40
2006,09,24,14,45,21.40
2006,09,24,14,46,21.30
2006,09,24,14,47,21.30
2006,09,24,14,48,21.30
2006,09,24,14,49,21.30
2006,09,24,14,50,21.30
2006,09,24,14,51,21.30
2006,09,24,14,52,21.40
2006,09,24,14,53,21.50
2006,09,24,14,54,21.60
2006,09,24,14,55,21.60
2006,09,24,14,56,21.60
2006,09,24,14,57,21.60
2006,09,24,14,58,21.60
2006,09,24,14,59,21.60
2006,09,24,15,00,21.60
2006,09,24,15,01,21.60
2006,09,24,15,02,21.60
2006,09,24,15,03,21.60
2006,09,24,15,04,21.60
2006,09,24,15,05,21.60
2006,09,24,15,06,21.60
2006,09,24,15,07,21.60
2006,09,24,15,08,21.60
2006,09,24,15,09,21.60
2006,09,24,15,10,21.60
2006,09,24,15,11,21.60
2006,09,24,15,12,21.70
2006,09,24,15,13,21.70
2006,09,24,15,14,21.80
2006,09,24,15,15,21.80
2006,09,24,15,16,21.80
2006,09,24,15,17,21.80
2006,09,24,15,18,21.80
2006,09,24,15,19,21.80
2006,09,24,15,20,21.80
2006,09,24,15,21,21.80
2006,09,24,15,22,21.80
2006,09,24,15,23,21.80
2006,09,24,15,24,21.80
2006,09,24,15,25,21.80
2006,09,24,15,26,21.90
2006,09,24,15,27,21.90
2006,09,24,15,28,22.00
2006,09,24,15,29,22.00
2006,09,24,15,30,21.90
2006,09,24,15,31,21.90
2006,09,24,15,32,21.90
2006,09,24,15,33,21.90
2006,09,24,15,34,22.00
2006,09,24,15,35,22.00
2006,09,24,15,36,22.00
2006,09,24,15,37,22.00
2006,09,24,15,38,22.10
2006,09,24,15,39,22.10
2006,09,24,15,40,22.10
2006,09,24,15,41,22.10
2006,09,24,15,42,22.10
2006,09,24,15,43,22.10
2006,09,24,15,44,22.10
2006,09,24,15,45,22.00
2006,09,24,15,46,22.00
2006,09,24,15,47,22.00
2006,09,24,15,48,22.00
2006,09,24,15,49,21.90
2006,09,24,15,50,21.90
2006,09,24,15,51,21.80
2006,09,24,15,52,21.80
2006,09,24,15,53,21.80
2006,09,24,15,54,21.80
2006,09,24,15,55,21.80
2006,09,24,15,56,21.80
2006,09,24,15,57,21.80
2006,09,24,15,58,21.80
2006,09,24,15,59,21.90
2006,09,24,16,00,21.90
2006,09,24,16,01,21.90
2006,09,24,16,02,22.00
2006,09,24,16,03,22.00
2006,09,24,16,04,22.00
2006,09,24,16,05,22.10
2006,09,24,16,06,22.10
2006,09,24,16,07,22.10
2006,09,24,16,08,22.10
2006,09,24,16,09,22.10
2006,09,24,16,10,22.10
2006,09,24,16,11,22.10
2006,09,24,16,12,22.10
2006,09,24,16,13,22.10
2006,09,24,16,14,22.10
2006,09,24,16,15,22.10
2006,09,24,16,16,22.10
2006,09,24,16,17,22.10
2006,09,24,16,18,22.10
2006,09,24,16,19,22.10
2006,09,24,16,20,22.10
2006,09,24,16,21,22.10
2006,09,24,16,22,22.10
2006,09,24,16,23,22.10
2006,09,24,16,24,22.10
2006,09,24,16,25,22.10
2006,09,24,16,26,22.10
2006,09,24,16,27,22.00
2006,09,24,16,28,22.00
2006,09,24,16,29,22.00
2006,09,24,16,30,22.00
2006,09,24,16,31,22.00
2006,09,24,16,32,22.00
2006,09,24,16,33,22.00
2006,09,24,16,34,22.00
2006,09,24,16,35,22.00
2006,09,24,16,36,22.00
2006,09,24,16,37,22.10
2006,09,24,16,38,22.00
2006,09,24,16,39,22.00
2006,09,24,16,40,21.90
2006,09,24,16,41,21.90
2006,09,24,16,42,21.90
2006,09,24,16,43,21.90
2006,09,24,16,44,21.80
2006,09,24,16,45,21.80
2006,09,24,16,46,21.80
2006,09,24,16,47,21.80
2006,09,24,16,48,21.80
2006,09,24,16,49,21.80
2006,09,24,16,50,21.80
2006,09,24,16,51,21.70
2006,09,24,16,52,21.70
2006,09,24,16,53,21.70
2006,09,24,16,54,21.70
2006,09,24,16,55,21.70
2006,09,24,16,56,21.70
2006,09,24,16,57,21.70
2006,09,24,16,58,21.70
2006,09,24,16,59,21.70
2006,09,24,17,00,21.70
2006,09,24,17,01,21.70
2006,09,24,17,02,21.70
2006,09,24,17,03,21.70
2006,09,24,17,04,21.70
2006,09,24,17,05,21.80
2006,09,24,17,06,21.80
2006,09,24,17,07,21.80
2006,09,24,17,08,21.80
2006,09,24,17,09,21.70
2006,09,24,17,10,21.70
2006,09,24,17,11,21.70
2006,09,24,17,12,21.70
2006,09,24,17,13,21.60
2006,09,24,17,14,21.60
2006,09,24,17,15,21.60
2006,09,24,17,16,21.60
2006,09,24,17,17,21.50
2006,09,24,17,18,21.40
2006,09,24,17,19,21.30
2006,09,24,17,20,21.30
2006,09,24,17,21,21.30
2006,09,24,17,22,21.30
2006,09,24,17,23,21.30
2006,09,24,17,24,21.30
2006,09,24,17,25,21.30
2006,09,24,17,26,21.30
2006,09,24,17,27,21.30
2006,09,24,17,28,21.30
2006,09,24,17,29,21.30
2006,09,24,17,30,21.30